When you browse on this site, cookies collect data to enhance your experience and personalize the content and advertising you see.
Visit our Privacy Policy to learn more. By continuing to use the site, you agree to this use of cookies and data.

Hourly Weather Kurytyba

Today, 23 September, Wednesday

Time Temperature Precipitation Wind Pressure Humidity
00:00 +10°C° 0 mm 2 mps 686 mmHg 87%
01:00 +10°C° 0 mm 2 mps 686 mmHg 88%
02:00 +10°C° 0 mm 2 mps 686 mmHg 88%
03:00 +10°C° 0 mm 2 mps 686 mmHg 89%
04:00 +10°C° 0 mm 2 mps 686 mmHg 90%
05:00 +10°C° 0 mm 2 mps 686 mmHg 91%
06:00 +10°C° 0 mm 2 mps 686 mmHg 93%
07:00 +12°C° 0 mm 2 mps 687 mmHg 89%
08:00 +13°C° 0 mm 2 mps 687 mmHg 85%
09:00 +14°C° 0 mm 2 mps 688 mmHg 81%
10:00 +16°C° 0 mm 2 mps 688 mmHg 75%
11:00 +17°C° 0 mm 2 mps 688 mmHg 69%
12:00 +19°C° 0 mm 2 mps 688 mmHg 63%
13:00 +19°C° 0 mm 2 mps 687 mmHg 63%
14:00 +19°C° 0 mm 2 mps 687 mmHg 64%
15:00 +19°C° 0 mm 2 mps 686 mmHg 64%
16:00 +18°C° 0 mm 2 mps 686 mmHg 70%
17:00 +17°C° 0 mm 2 mps 686 mmHg 75%
18:00 +16°C° 0 mm 2 mps 686 mmHg 81%
19:00 +15°C° 0 mm 2 mps 686 mmHg 86%
20:00 +14°C° 0 mm 2 mps 686 mmHg 90%
21:00 +13°C° 0 mm 2 mps 686 mmHg 95%
22:00 +13°C° 0 mm 2 mps 686 mmHg 94%
23:00 +13°C° 0 mm 2 mps 686 mmHg 94%

Tomorrow, 24 September, Thursday

Time Temperature Precipitation Wind Pressure Humidity
00:00 +13°C° 0 mm 2 mps 686 mmHg 93%
01:00 +13°C° 0 mm 1 mps 686 mmHg 94%
02:00 +13°C° 0 mm 1 mps 685 mmHg 94%
03:00 +13°C° 0 mm 1 mps 685 mmHg 95%
04:00 +13°C° 0 mm 1 mps 685 mmHg 94%
05:00 +13°C° 0 mm 1 mps 685 mmHg 93%
06:00 +13°C° 0 mm 1 mps 685 mmHg 92%
07:00 +15°C° 0 mm 1 mps 686 mmHg 82%
08:00 +18°C° 0 mm 1 mps 686 mmHg 72%
09:00 +20°C° 0 mm 1 mps 687 mmHg 63%
10:00 +22°C° 0 mm 1 mps 687 mmHg 53%
11:00 +25°C° 0 mm 1 mps 687 mmHg 44%
12:00 +27°C° 0 mm 1 mps 687 mmHg 34%
13:00 +28°C° 0 mm 1 mps 686 mmHg 33%
14:00 +28°C° 0 mm 1 mps 686 mmHg 32%
15:00 +29°C° 0 mm 1 mps 685 mmHg 30%
16:00 +26°C° 0 mm 1 mps 684 mmHg 43%
17:00 +24°C° 0 mm 2 mps 684 mmHg 56%
18:00 +20°C° 0 mm 2 mps 683 mmHg 68%
19:00 +19°C° 0 mm 2 mps 683 mmHg 77%
20:00 +18°C° 0 mm 2 mps 684 mmHg 85%
21:00 +16°C° 0 mm 2 mps 684 mmHg 93%
22:00 +16°C° 0 mm 2 mps 684 mmHg 93%
23:00 +16°C° 0 mm 1 mps 684 mmHg 93%

Day after tomorrow, 25 September, Friday

Time Temperature Precipitation Wind Pressure Humidity
00:00 +15°C° 0 mm 1 mps 684 mmHg 93%
01:00 +15°C° 0 mm 1 mps 684 mmHg 93%
02:00 +15°C° 0 mm 1 mps 683 mmHg 92%
03:00 +15°C° 0 mm 1 mps 683 mmHg 91%
04:00 +15°C° 0 mm 1 mps 683 mmHg 92%
05:00 +15°C° 0 mm 1 mps 683 mmHg 93%
06:00 +14°C° 0 mm 1 mps 683 mmHg 93%
07:00 +16°C° 0 mm 1 mps 684 mmHg 86%
08:00 +19°C° 0 mm 1 mps 684 mmHg 79%
09:00 +20°C° 0 mm 1 mps 685 mmHg 72%
10:00 +23°C° 0 mm 1 mps 685 mmHg 61%
11:00 +26°C° 0 mm 1 mps 685 mmHg 51%
12:00 +29°C° 0 mm 1 mps 685 mmHg 40%
13:00 +29°C° 0 mm 1 mps 684 mmHg 38%
14:00 +30°C° 0 mm 2 mps 684 mmHg 36%
15:00 +30°C° 0 mm 2 mps 683 mmHg 35%
16:00 +28°C° 0 mm 2 mps 682 mmHg 46%
17:00 +26°C° 0 mm 2 mps 682 mmHg 56%
18:00 +23°C° 0 mm 2 mps 681 mmHg 67%
19:00 +21°C° 0 mm 2 mps 681 mmHg 75%
20:00 +19°C° 0 mm 2 mps 681 mmHg 83%
21:00 +18°C° 0 mm 2 mps 682 mmHg 91%
22:00 +19°C° 0 mm 1 mps 682 mmHg 92%
23:00 +18°C° 0 mm 1 mps 682 mmHg 93%

26 September, Saturday

Time Temperature Precipitation Wind Pressure Humidity
00:00 +18°C° 0 mm 1 mps 682 mmHg 94%
01:00 +18°C° 0 mm 1 mps 681 mmHg 94%
02:00 +18°C° 0 mm 1 mps 681 mmHg 94%
03:00 +18°C° 0 mm 1 mps 681 mmHg 94%
04:00 +16°C° 0 mm 1 mps 681 mmHg 94%
05:00 +16°C° 0 mm 1 mps 681 mmHg 95%
06:00 +16°C° 0 mm 1 mps 680 mmHg 96%
07:00 +19°C° 0 mm 1 mps 681 mmHg 84%
08:00 +22°C° 0 mm 1 mps 682 mmHg 72%
09:00 +24°C° 0 mm 1 mps 683 mmHg 61%
10:00 +27°C° 0 mm 2 mps 683 mmHg 52%
11:00 +29°C° 0 mm 2 mps 683 mmHg 43%
12:00 +31°C° 0 mm 2 mps 683 mmHg 35%
13:00 +31°C° 0 mm 2 mps 682 mmHg 35%
14:00 +31°C° 0 mm 2 mps 681 mmHg 36%
15:00 +31°C° 0 mm 2 mps 680 mmHg 36%
16:00 +29°C° 0 mm 2 mps 680 mmHg 47%
17:00 +27°C° 0 mm 2 mps 679 mmHg 57%
18:00 +24°C° 0 mm 2 mps 679 mmHg 68%
19:00 +24°C° 0 mm 1 mps 679 mmHg 68%
20:00 +23°C° 0 mm 1 mps 679 mmHg 69%
21:00 +22°C° 0 mm 1 mps 679 mmHg 69%
22:00 +22°C° 0 mm 1 mps 679 mmHg 67%
23:00 +22°C° 0 mm 1 mps 679 mmHg 64%

27 September, Sunday

Time Temperature Precipitation Wind Pressure Humidity
00:00 +22°C° 0 mm 1 mps 679 mmHg 62%
01:00 +21°C° 0 mm 1 mps 678 mmHg 62%
02:00 +21°C° 0 mm 1 mps 678 mmHg 62%
03:00 +21°C° 0 mm 1 mps 678 mmHg 62%
04:00 +20°C° 0 mm 1 mps 678 mmHg 61%
05:00 +20°C° 0 mm 1 mps 678 mmHg 60%
06:00 +20°C° 0 mm 1 mps 678 mmHg 60%
07:00 +23°C° 0 mm 2 mps 679 mmHg 50%
08:00 +26°C° 0 mm 3 mps 680 mmHg 41%
09:00 +29°C° 0 mm 4 mps 680 mmHg 32%
10:00 +32°C° 0 mm 4 mps 680 mmHg 28%
11:00 +34°C° 0 mm 4 mps 680 mmHg 24%
12:00 +36°C° 0 mm 5 mps 680 mmHg 20%
13:00 +36°C° 0 mm 5 mps 680 mmHg 21%
14:00 +36°C° 0 mm 5 mps 679 mmHg 22%
15:00 +36°C° 0 mm 4 mps 679 mmHg 22%
16:00 +34°C° 0 mm 3 mps 679 mmHg 29%
17:00 +31°C° 0 mm 2 mps 679 mmHg 35%
18:00 +29°C° 0 mm 1 mps 679 mmHg 41%
19:00 +26°C° 0 mm 1 mps 679 mmHg 52%
20:00 +24°C° 0 mm 1 mps 678 mmHg 62%
21:00 +22°C° 0 mm 1 mps 678 mmHg 73%
22:00 +23°C° 0 mm 1 mps 678 mmHg 68%
23:00 +23°C° 0 mm 1 mps 679 mmHg 64%

28 September, Monday

Time Temperature Precipitation Wind Pressure Humidity
00:00 +23°C° 0 mm 1 mps 679 mmHg 59%
01:00 +23°C° 0 mm 1 mps 678 mmHg 61%
02:00 +22°C° 0 mm 1 mps 678 mmHg 62%
03:00 +21°C° 0 mm 1 mps 678 mmHg 64%
04:00 +19°C° 0.1 mm 0 mps 678 mmHg 68%
05:00 +18°C° 0.1 mm 0 mps 678 mmHg 71%
06:00 +18°C° 0.1 mm 0 mps 678 mmHg 75%
07:00 +20°C° 0.2 mm 0 mps 679 mmHg 70%
08:00 +22°C° 0.2 mm 0 mps 681 mmHg 64%
09:00 +25°C° 0.2 mm 0 mps 682 mmHg 59%
10:00 +29°C° 0.1 mm 1 mps 682 mmHg 53%
11:00 +30°C° 0.1 mm 1 mps 682 mmHg 47%
12:00 +32°C° 0.1 mm 2 mps 682 mmHg 41%
13:00 +30°C° 0.7 mm 2 mps 681 mmHg 52%
14:00 +27°C° 0.7 mm 3 mps 680 mmHg 63%
15:00 +25°C° 0.7 mm 3 mps 679 mmHg 74%
16:00 +22°C° 5.3 mm 3 mps 679 mmHg 80%
17:00 +20°C° 5.3 mm 2 mps 679 mmHg 86%
18:00 +19°C° 5.3 mm 2 mps 679 mmHg 92%
19:00 +18°C° 1.3 mm 2 mps 680 mmHg 93%
20:00 +17°C° 1.3 mm 2 mps 681 mmHg 94%
21:00 +17°C° 1.3 mm 2 mps 681 mmHg 95%
22:00 +17°C° 0.4 mm 2 mps 681 mmHg 94%
23:00 +16°C° 0.4 mm 2 mps 681 mmHg 94%
Show more